Date,Discharge,Inputs (melt + rainfall)
01/01/2008,879536.1468,246957
02/01/2008,993996.3303,115937
03/01/2008,1656660.55,302206
04/01/2008,1245507.523,113500
05/01/2008,810257.6147,116354
06/01/2008,625012.844,71889
07/01/2008,411153.0275,7076
08/01/2008,308741.2844,79099
09/01/2008,254523.3028,16568
10/01/2008,206329.5413,58894
11/01/2008,179220.5505,12880
12/01/2008,156629.7248,689
13/01/2008,134942.5321,0
14/01/2008,115815.633,0
15/01/2008,98797.21101,0
16/01/2008,83435.44954,16657
17/01/2008,71537.61468,9162
18/01/2008,65965.21101,0
19/01/2008,61145.83486,0
20/01/2008,56477.06422,5196
21/01/2008,52260.11009,500
22/01/2008,48193.76147,49282
23/01/2008,44278.01835,1249
24/01/2008,41416.51376,0
25/01/2008,40362.27523,1523
26/01/2008,39458.6422,0
27/01/2008,38555.00917,60404
28/01/2008,38253.79817,9120
29/01/2008,37952.58716,0
30/01/2008,37651.37615,0
31/01/2008,37350.16514,293
01/02/2008,37199.55963,0
02/02/2008,37199.55963,0
03/02/2008,37199.55963,153
04/02/2008,37199.55963,858
05/02/2008,37199.55963,4561
06/02/2008,192775.0459,0
07/02/2008,984960,26060
08/02/2008,1030141.651,62533
09/02/2008,1310267.89,61860
10/02/2008,1179241.101,94486
11/02/2008,1329846.606,155579
12/02/2008,1262074.128,42168
13/02/2008,1067793.028,34967
14/02/2008,1093395.963,179564
15/02/2008,1170204.771,171206
16/02/2008,1033153.761,151786
17/02/2008,906645.1376,245611
18/02/2008,879536.1468,224576
19/02/2008,986466.055,242559
20/02/2008,1084359.633,101618
21/02/2008,864475.5963,37128
22/02/2008,677724.7706,14039
23/02/2008,572300.9174,496
24/02/2008,459346.789,765
25/02/2008,368983.4862,100
26/02/2008,305729.1743,474
27/02/2008,262053.578,774
28/02/2008,230426.422,2
29/02/2008,200305.3211,70
01/03/2008,179220.5505,4378
02/03/2008,159641.8349,0
03/03/2008,140514.9358,0
04/03/2008,126207.4128,17723
05/03/2008,117321.6881,76825
06/03/2008,123345.9083,2134
07/03/2008,221390.0917,15235
08/03/2008,271089.9083,9909
09/03/2008,231932.4771,8732
10/03/2008,198799.2661,1611
11/03/2008,176208.4404,29906
12/03/2008,155123.6697,99624
13/03/2008,137804.0367,70504
14/03/2008,122141.0642,25768
15/03/2008,121689.2477,4522
16/03/2008,122291.6697,10438
17/03/2008,112502.3119,24419
18/03/2008,112652.9174,72559
19/03/2008,84640.29358,64003
20/03/2008,78164.25688,40938
21/03/2008,71387.00917,29806
22/03/2008,70031.55963,30373
23/03/2008,65814.6055,0
24/03/2008,62200.07339,0
25/03/2008,65061.57798,0
26/03/2008,59639.77982,133
27/03/2008,54669.79817,44
28/03/2008,54217.98165,1222
29/03/2008,51808.29358,1608
30/03/2008,52561.3211,31915
31/03/2008,43976.80734,83247
01/04/2008,35091.08257,11330
02/04/2008,31928.36697,10271
03/04/2008,30874.12844,30683
04/04/2008,28163.22936,0
05/04/2008,28765.65138,104
06/04/2008,29518.6789,332
07/04/2008,29970.49541,8293
08/04/2008,32530.78899,20193
09/04/2008,32380.18349,4390
10/04/2008,32681.3945,120765
11/04/2008,33585.02752,42508
12/04/2008,39910.45872,21553
13/04/2008,39609.24771,3471
14/04/2008,42922.56881,0
15/04/2008,41265.90826,0
16/04/2008,42621.3578,0
17/04/2008,49699.81651,0
18/04/2008,62350.6789,0
19/04/2008,70031.55963,0
20/04/2008,78766.6789,0
21/04/2008,87200.58716,0
22/04/2008,92019.9633,0
23/04/2008,105122.6422,0
24/04/2008,156629.7248,0
25/04/2008,186750.8257,0
26/04/2008,176208.4404,0
27/04/2008,168678.1651,0
28/04/2008,159641.8349,0
29/04/2008,155123.6697,0
30/04/2008,158135.7798,0
01/05/2008,189762.9358,0
02/05/2008,203317.4312,0
03/05/2008,253017.2477,0
04/05/2008,423201.4679,0
05/05/2008,534649.5413,0
06/05/2008,584349.3578,0
07/05/2008,593385.6881,0
08/05/2008,588867.5229,0
09/05/2008,539167.7064,0
10/05/2008,489467.8899,0
11/05/2008,456334.6789,0
12/05/2008,457840.7339,0
13/05/2008,495492.1101,0
14/05/2008,534649.5413,0
15/05/2008,531637.4312,0
16/05/2008,501516.3303,0
17/05/2008,445792.2936,0
18/05/2008,394586.422,239295
19/05/2008,373501.6514,315052
20/05/2008,359947.156,322501
21/05/2008,349404.7706,278610
22/05/2008,349404.7706,471358
23/05/2008,367477.4312,760464
24/05/2008,391574.3119,808650
25/05/2008,454828.6239,847312
26/05/2008,524107.156,866471
27/05/2008,582843.3028,893349
28/05/2008,603928.0734,977149
29/05/2008,584349.3578,853971
30/05/2008,548204.0367,760568
31/05/2008,564770.6422,1020132
01/06/2008,643085.5046,949237
02/06/2008,652121.8349,1216088
03/06/2008,599409.9083,904430
04/06/2008,706339.8165,985797
05/06/2008,921705.6881,1023646
06/06/2008,1216892.477,1072022
07/06/2008,1503042.936,1020788
08/06/2008,2394627.523,1055932
09/06/2008,1641600,773381
10/06/2008,1114480.734,538365
11/06/2008,906645.1376,748902
12/06/2008,905139.0826,963301
13/06/2008,987972.1101,846559
14/06/2008,1030141.651,851806
15/06/2008,1349425.321,1124103
16/06/2008,2997049.541,919858
17/06/2008,2123537.615,778692
18/06/2008,1153638.165,636691
19/06/2008,867487.7064,579590
20/06/2008,754533.578,601611
21/06/2008,727424.5872,567616
22/06/2008,671700.5505,501194
23/06/2008,766582.0183,1011776
24/06/2008,765075.9633,1185854
25/06/2008,777124.4037,760758
26/06/2008,780136.5138,495835
27/06/2008,765075.9633,1028861
28/06/2008,796703.1193,740507
29/06/2008,740979.0826,820901
30/06/2008,840378.7156,1160750
01/07/2008,899114.8624,1174810
02/07/2008,986466.055,1381509
03/07/2008,1260568.073,1517492
04/07/2008,1424728.073,1167089
05/07/2008,1626539.45,1240449
06/07/2008,1551236.697,910281
07/07/2008,1506055.046,487773
08/07/2008,1447318.899,513855
09/07/2008,1337376.881,522574
10/07/2008,1301231.56,678005
11/07/2008,1215386.422,930984
12/07/2008,1171710.826,1090865
13/07/2008,1296713.394,1417670
14/07/2008,1506055.046,1527857
15/07/2008,1462379.45,1686578
16/07/2008,1551236.697,1659349
17/07/2008,1240989.358,1395747
18/07/2008,1061768.807,1043235
19/07/2008,1067793.028,1409145
20/07/2008,1149120,1682921
21/07/2008,1240989.358,1586080
22/07/2008,1656660.55,1809409
23/07/2008,1641600,1534411
24/07/2008,1495512.661,1743968
25/07/2008,1335870.826,2024285
26/07/2008,1837387.156,1762043
27/07/2008,1716902.752,1625351
28/07/2008,1521115.596,1846351
29/07/2008,1626539.45,2536019
30/07/2008,2108477.064,3579332
31/07/2008,2018113.761,1930406
01/08/2008,1701842.202,2180023
02/08/2008,1536176.147,1524457
03/08/2008,1489488.44,1234689
04/08/2008,1335870.826,849634
05/08/2008,1195807.706,860433
06/08/2008,1109962.569,754107
07/08/2008,1049720.367,770130
08/08/2008,981947.8899,1144308
09/08/2008,974417.6147,922610
10/08/2008,862969.5413,1049178
11/08/2008,872005.8716,1148934
12/08/2008,870499.8165,1063350
13/08/2008,856945.3211,1043761
14/08/2008,870499.8165,1341163
15/08/2008,929235.9633,1298971
16/08/2008,917187.5229,1618707
17/08/2008,890078.5321,1549969
18/08/2008,948814.6789,1700226
19/08/2008,1028635.596,1433892
20/08/2008,1122011.009,3337625
21/08/2008,956344.9541,1420765
22/08/2008,993996.3303,1648180
23/08/2008,1176228.991,1598703
24/08/2008,1183759.266,1420497
25/08/2008,1367497.982,2138555
26/08/2008,1138577.615,1628589
27/08/2008,1001526.606,1212456
28/08/2008,855439.2661,1104067
29/08/2008,1284664.954,3593105
30/08/2008,2409688.073,1641986
31/08/2008,2560293.578,2204619
01/09/2008,1942811.009,1417031
02/09/2008,2710899.083,3831092
03/09/2008,1596418.349,845518
04/09/2008,1076829.358,572949
05/09/2008,884054.3119,900785
06/09/2008,805739.4495,918426
07/09/2008,757545.6881,1091979
08/09/2008,825318.1651,1128021
09/09/2008,1322316.33,3061537
10/09/2008,3494047.706,3105143
11/09/2008,4503104.587,5977968
12/09/2008,3554289.908,4098415
13/09/2008,4472983.486,2224257
14/09/2008,5060344.954,2010776
15/09/2008,3192836.697,1171116
16/09/2008,1807266.055,1217260
17/09/2008,5466979.817,5084291
18/09/2008,4427801.835,1043314
19/09/2008,1927750.459,887418
20/09/2008,2545233.028,1935355
21/09/2008,1716902.752,828502
22/09/2008,1262074.128,1036943
23/09/2008,1013575.046,1086927
24/09/2008,1852447.706,1892676
25/09/2008,2078355.963,752453
26/09/2008,2093416.514,2347115
27/09/2008,1641600,671495
28/09/2008,932248.0734,413612
29/09/2008,765075.9633,532906
30/09/2008,646097.6147,155276
01/10/2008,533143.4862,210636
02/10/2008,439768.0734,11307
03/10/2008,384044.0367,2222
04/10/2008,338862.3853,92033
05/10/2008,304223.1193,71227
06/10/2008,295186.789,439630
07/10/2008,677724.7706,2733638
08/10/2008,903633.0275,360895
09/10/2008,956344.9541,997603
10/10/2008,1448824.954,970116
11/10/2008,1141589.725,745088
12/10/2008,670194.4954,255718
13/10/2008,481937.6147,302243
14/10/2008,376513.7615,210685
15/10/2008,338862.3853,253190
16/10/2008,286150.4587,89560
17/10/2008,284644.4037,427655
18/10/2008,253017.2477,62008
19/10/2008,224402.2018,12310
20/10/2008,201811.3761,37869
21/10/2008,189762.9358,7903
22/10/2008,207835.5963,8725
23/10/2008,234944.5872,167725
24/10/2008,188256.8807,42575
25/10/2008,242474.8624,17888
26/10/2008,260547.5229,36624
27/10/2008,236450.6422,90
28/10/2008,221390.0917,71
29/10/2008,212353.7615,702
30/10/2008,204823.4862,14495
31/10/2008,198799.2661,86735
01/11/2008,192775.0459,235730
02/11/2008,189762.9358,89207
03/11/2008,188256.8807,197519
04/11/2008,210847.7064,414708
05/11/2008,500010.2752,548898
06/11/2008,414165.1376,513210
07/11/2008,585855.4128,508852
08/11/2008,832848.4404,534781
09/11/2008,793691.0092,398250
10/11/2008,650615.7798,274260
11/11/2008,484949.7248,35373
12/11/2008,391574.3119,6696
13/11/2008,329826.055,76119
14/11/2008,269583.8532,13887
15/11/2008,221390.0917,5083
16/11/2008,254523.3028,78034
17/11/2008,180726.6055,283757
18/11/2008,159641.8349,260499
19/11/2008,182232.6606,383467
20/11/2008,146539.156,3356
21/11/2008,147593.3945,0
22/11/2008,146237.945,4018
23/11/2008,141719.7798,15698
24/11/2008,137804.0367,3139
25/11/2008,134641.3211,322277
26/11/2008,127261.6514,52234
27/11/2008,125153.1743,8673
28/11/2008,125604.9908,0
29/11/2008,126960.4404,2
30/11/2008,131328,0
01/12/2008,135394.3486,27
02/12/2008,137051.0092,0
03/12/2008,138858.2752,581
04/12/2008,147442.789,3088
05/12/2008,158135.7798,193
06/12/2008,165666.055,44880
07/12/2008,170184.2202,13354
08/12/2008,167172.1101,1143
09/12/2008,171690.2752,551
10/12/2008,197293.211,212069
11/12/2008,506034.4954,148714
12/12/2008,549710.0917,42521
13/12/2008,418683.3028,3
14/12/2008,346392.6606,0
15/12/2008,292174.6789,22533
16/12/2008,257535.4128,2522
17/12/2008,231932.4771,0
18/12/2008,213859.8165,0
19/12/2008,206329.5413,0
20/12/2008,203317.4312,304
21/12/2008,201811.3761,21006
22/12/2008,402116.6972,134712
23/12/2008,1224422.752,164141
24/12/2008,1626539.45,341086
25/12/2008,855439.2661,142757
26/12/2008,575313.0275,15144
27/12/2008,456334.6789,175839
28/12/2008,371995.5963,221531
29/12/2008,311753.3945,76839
30/12/2008,268077.7982,46992
31/12/2008,219884.0367,0
01/01/2009,198799.2661,7568
02/01/2009,188256.8807,48363
03/01/2009,179220.5505,28317
04/01/2009,192775.0459,46131
05/01/2009,176208.4404,26880
06/01/2009,142472.8073,4192
07/01/2009,126809.8349,73010
08/01/2009,126508.6239,211297
09/01/2009,368983.4862,193555
10/01/2009,260547.5229,93350
11/01/2009,215365.8716,6805
12/01/2009,186750.8257,10799
13/01/2009,168678.1651,0
14/01/2009,159641.8349,72478
15/01/2009,415671.1927,250869
16/01/2009,465371.0092,189876
17/01/2009,278620.1835,49410
18/01/2009,210847.7064,43817
19/01/2009,203317.4312,72187
20/01/2009,0,181812
21/01/2009,0,59102
22/01/2009,0,125271
23/01/2009,0,284371
24/01/2009,0,317910
25/01/2009,0,134758
26/01/2009,0,60787
27/01/2009,168678.1651,38236
28/01/2009,136297.9817,19732
29/01/2009,137502.8257,26452
30/01/2009,260547.5229,6306
31/01/2009,254523.3028,8769
01/02/2009,253017.2477,1285
02/02/2009,236450.6422,0
03/02/2009,219884.0367,0
04/02/2009,192775.0459,0
05/02/2009,168678.1651,0
06/02/2009,165666.055,0
07/02/2009,165666.055,0
08/02/2009,204823.4862,76
09/02/2009,221390.0917,0
10/02/2009,201811.3761,0
11/02/2009,192775.0459,0
12/02/2009,192775.0459,0
13/02/2009,323801.8349,83857
14/02/2009,423201.4679,46191
15/02/2009,408140.9174,82278
16/02/2009,435249.9083,131425
17/02/2009,510552.6606,196648
18/02/2009,694291.3761,190448
19/02/2009,451816.5138,83025
20/02/2009,326813.945,133656
21/02/2009,432237.7982,211199
22/02/2009,307235.2294,58949
23/02/2009,228920.367,417
24/02/2009,171690.2752,47617
25/02/2009,218377.9817,38854
26/02/2009,149250.055,0
27/02/2009,144731.8899,18465
28/02/2009,145635.5229,19180
01/03/2009,118074.7156,6982
02/03/2009,103767.1927,18523
03/03/2009,99851.44954,0
04/03/2009,95634.49541,1619
05/03/2009,122592.8807,0
06/03/2009,110544.4404,120
07/03/2009,93676.62385,16568
08/03/2009,70332.77064,4707
09/03/2009,70332.77064,7404
10/03/2009,73194.27523,8998
11/03/2009,92170.56881,68860
12/03/2009,100453.8716,36779
13/03/2009,79067.88991,912
14/03/2009,108134.7523,102087
15/03/2009,150003.0826,34966
16/03/2009,114158.9725,36447
17/03/2009,99098.42202,196994
18/03/2009,143376.4404,236290
19/03/2009,233438.5321,294299
20/03/2009,254523.3028,245139
21/03/2009,231932.4771,195810
22/03/2009,173196.3303,72382
23/03/2009,120183.1927,78444
24/03/2009,91568.14679,39333
25/03/2009,75905.17431,0
26/03/2009,69127.92661,4615
27/03/2009,73646.09174,0
28/03/2009,90664.51376,0
29/03/2009,69278.53211,3637
30/03/2009,67170.05505,0
31/03/2009,57230.09174,13534
01/04/2009,92622.38532,137518
02/04/2009,122141.0642,167232
03/04/2009,191268.9908,218087
04/04/2009,269583.8532,258149
05/04/2009,207835.5963,204391
06/04/2009,198799.2661,232704
07/04/2009,281632.2936,307190
08/04/2009,262053.578,213278
09/04/2009,236450.6422,222224
10/04/2009,228920.367,191015
11/04/2009,204823.4862,72551
12/04/2009,173196.3303,9596
13/04/2009,153617.6147,54091
14/04/2009,168678.1651,256573
15/04/2009,191268.9908,299011
16/04/2009,183738.7156,273598
17/04/2009,171690.2752,405191
18/04/2009,176208.4404,409318
19/04/2009,197293.211,435303
20/04/2009,412659.0826,547254
21/04/2009,453322.5688,457161
22/04/2009,570794.8624,442168
23/04/2009,668688.4404,376554
24/04/2009,698809.5413,494924
25/04/2009,572300.9174,378867
26/04/2009,477419.4495,254981
27/04/2009,394586.422,420579
28/04/2009,361453.211,232013
29/04/2009,387056.1468,560353
30/04/2009,652121.8349,616155
01/05/2009,801221.2844,598378
02/05/2009,891584.5872,461996
03/05/2009,718388.2569,377170
04/05/2009,578325.1376,465047
05/05/2009,451816.5138,472183
06/05/2009,368983.4862,388400
07/05/2009,326813.945,361554
08/05/2009,271089.9083,202358
09/05/2009,233438.5321,113764
10/05/2009,191268.9908,266503
11/05/2009,215365.8716,607765
12/05/2009,296692.844,752582
13/05/2009,290668.6239,887159
14/05/2009,280126.2385,752165
15/05/2009,304223.1193,620245
16/05/2009,362959.2661,989425
17/05/2009,444286.2385,1124493
18/05/2009,512058.7156,833699
19/05/2009,551216.1468,935369
20/05/2009,487961.8349,487496
21/05/2009,406634.8624,527656
22/05/2009,367477.4312,608882
23/05/2009,426213.578,949746
24/05/2009,594891.7431,809616
25/05/2009,754533.578,454188
26/05/2009,640073.3945,445853
27/05/2009,500010.2752,592622
28/05/2009,427719.633,705782
29/05/2009,576819.0826,933815
30/05/2009,652121.8349,871797
31/05/2009,609952.2936,703237
01/06/2009,554228.2569,817033
02/06/2009,519588.9908,789967
03/06/2009,524107.156,843211
04/06/2009,603928.0734,635460
05/06/2009,709351.9266,426284
06/06/2009,1349425.321,522459
07/06/2009,2545233.028,227527
08/06/2009,753027.5229,330838
09/06/2009,587361.4679,228689
10/06/2009,563264.5872,278073
11/06/2009,567782.7523,554288
12/06/2009,599409.9083,600274
13/06/2009,596397.7982,590583
14/06/2009,606940.1835,932692
15/06/2009,661158.1651,1031292
16/06/2009,685255.0459,1126702
17/06/2009,1135565.505,2140282
18/06/2009,1179241.101,1253511
19/06/2009,1361473.761,1039561
20/06/2009,1219904.587,801371
21/06/2009,921705.6881,1146229
22/06/2009,936766.2385,1073056
23/06/2009,878030.0917,1255291
24/06/2009,826824.2202,1128500
25/06/2009,801221.2844,1201587
26/06/2009,893090.6422,983740
27/06/2009,1037671.927,871995
28/06/2009,1213880.367,1720461
29/06/2009,1319304.22,1438695
30/06/2009,1278640.734,1219324
01/07/2009,1228940.917,1439939
02/07/2009,1271110.459,1679037
03/07/2009,1307255.78,2046259
04/07/2009,1408161.468,1974089
05/07/2009,1686781.651,1953009
06/07/2009,1412679.633,1144445
07/07/2009,1283158.899,784974
08/07/2009,1233459.083,1189940
09/07/2009,1319304.22,1418149
10/07/2009,1316292.11,1478866
11/07/2009,1195807.706,945287
12/07/2009,1174722.936,1157162
13/07/2009,1221410.642,929010
14/07/2009,1072311.193,1022188
15/07/2009,960863.1193,911527
16/07/2009,1076829.358,1349067
17/07/2009,1174722.936,1089954
18/07/2009,1103938.349,820762
19/07/2009,1216892.477,1656964
20/07/2009,1671721.101,1885252
21/07/2009,1596418.349,1302037
22/07/2009,1341895.046,1047344
23/07/2009,1097914.128,639252
24/07/2009,865981.6514,956651
25/07/2009,778630.4587,899888
26/07/2009,865981.6514,1813910
27/07/2009,1075323.303,1205391
28/07/2009,1195807.706,1194145
29/07/2009,984960,1410142
30/07/2009,1058756.697,1370533
31/07/2009,1021105.321,1676074
01/08/2009,1012068.991,2410368
02/08/2009,933754.1284,1208397
03/08/2009,1134059.45,1189576
04/08/2009,1215386.422,1483671
05/08/2009,1641600,1760756
06/08/2009,2680777.982,1712230
07/08/2009,4457922.936,1633856
08/08/2009,3328381.651,1591347
09/08/2009,2725959.633,1490600
10/08/2009,1807266.055,1449532
11/08/2009,1792205.505,1198904
12/08/2009,1436776.514,1492061
13/08/2009,1224422.752,1152747
14/08/2009,1039177.982,1016592
15/08/2009,974417.6147,795269
16/08/2009,914175.4128,1054304
17/08/2009,867487.7064,1274819
18/08/2009,893090.6422,1058981
19/08/2009,1581357.798,1443048
20/08/2009,2033174.312,1570054
21/08/2009,1581357.798,965953
22/08/2009,1045202.202,812569
23/08/2009,905139.0826,1216708
24/08/2009,1365991.927,1464893
25/08/2009,2921746.789,1372597
26/08/2009,4533225.688,1507557
27/08/2009,2981988.991,1354306
28/08/2009,1972932.11,1232160
29/08/2009,1506055.046,1160631
30/08/2009,1271110.459,1134883
31/08/2009,1025623.486,989137
01/09/2009,989478.1651,1124684
02/09/2009,807245.5046,492191
03/09/2009,679230.8257,630483
04/09/2009,626518.8991,776633
05/09/2009,602422.0183,819507
06/09/2009,596397.7982,913247
07/09/2009,724412.4771,1470135
08/09/2009,905139.0826,2214608
09/09/2009,1033153.761,1386825
10/09/2009,807245.5046,1002759
11/09/2009,896102.7523,1521619
12/09/2009,1100926.239,1620926
13/09/2009,1239483.303,1207022
14/09/2009,1424728.073,1337249
15/09/2009,1170204.771,1107332
16/09/2009,909657.2477,817846
17/09/2009,936766.2385,1615224
18/09/2009,826824.2202,824052
19/09/2009,706339.8165,1020546
20/09/2009,762063.8532,736335
21/09/2009,944296.5138,1665294
22/09/2009,810257.6147,424402
23/09/2009,554228.2569,307367
24/09/2009,484949.7248,880236
25/09/2009,707845.8716,1743022
26/09/2009,760557.7982,397832
27/09/2009,668688.4404,330948
28/09/2009,489467.8899,140308
29/09/2009,365971.3761,174052
30/09/2009,319283.6697,241202
01/10/2009,278620.1835,77470
02/10/2009,256029.3578,51134
03/10/2009,231932.4771,132209
04/10/2009,207835.5963,35810
05/10/2009,192775.0459,24686
06/10/2009,174702.3853,143028
07/10/2009,165666.055,10691
08/10/2009,119430.1651,31063
09/10/2009,138557.0642,228083
10/10/2009,546697.9817,1649868
11/10/2009,362959.2661,146673
12/10/2009,293680.7339,286759
13/10/2009,421695.4128,828002
14/10/2009,376513.7615,533389
15/10/2009,358441.1009,578396
16/10/2009,304223.1193,504183
17/10/2009,618988.6239,1062284
18/10/2009,951826.789,452716
19/10/2009,804233.3945,18304
20/10/2009,641579.4495,47184
21/10/2009,549710.0917,322986
22/10/2009,590373.578,991135
23/10/2009,539167.7064,238505
24/10/2009,447298.3486,320624
25/10/2009,370489.5413,200300
26/10/2009,299704.9541,112166
27/10/2009,254523.3028,126615
28/10/2009,242474.8624,315793
29/10/2009,532828.8598,719947
30/10/2009,704650.4725,1026222
31/10/2009,545666.9176,921136
01/11/2009,310982.0003,223755
02/11/2009,236541.3484,92615
03/11/2009,326916.8567,256190
04/11/2009,431085.3694,407098
05/11/2009,452917.5987,486029
06/11/2009,435380.621,430861
07/11/2009,394710.5377,497872
08/11/2009,372186.9511,367529
09/11/2009,496298.3849,969964
10/11/2009,377539.0706,371409
11/11/2009,213285.2344,46324
12/11/2009,383168.3355,344092
13/11/2009,417028.2735,504613
14/11/2009,327163.8776,426627
15/11/2009,301827.6668,212421
16/11/2009,232542.8231,84645
17/11/2009,217235.5605,54246
18/11/2009,233246.2301,85137
19/11/2009,399228.7106,539732
20/11/2009,397639.1412,495767
21/11/2009,318690.3578,238288
22/11/2009,264166.0169,145078
23/11/2009,246993.0275,110159
24/11/2009,207835.5963,81939
25/11/2009,185244.7706,223007
26/11/2009,179220.5505,27315
27/11/2009,174702.3853,0
28/11/2009,171690.2752,0
29/11/2009,170184.2202,0
30/11/2009,168678.1651,0
01/12/2009,167172.1101,0
02/12/2009,164160,206076
03/12/2009,164160,169105
04/12/2009,162653.945,72577
05/12/2009,162653.945,371732
06/12/2009,162653.945,319553
07/12/2009,162653.945,400192
08/12/2009,162653.945,233711
09/12/2009,162653.945,506780
10/12/2009,162653.945,104969
11/12/2009,689773.211,497427
12/12/2009,1536176.147,1094048
13/12/2009,1972932.11,316688
14/12/2009,2319324.771,74837
15/12/2009,894596.6972,8898
16/12/2009,557240.367,32848
17/12/2009,420189.3578,33689
18/12/2009,335850.2752,22883
19/12/2009,287656.5138,76
20/12/2009,262053.578,156
21/12/2009,239462.7523,15
22/12/2009,219884.0367,0
23/12/2009,203317.4312,0
24/12/2009,185244.7706,0
25/12/2009,171690.2752,1011
26/12/2009,164160,6822
27/12/2009,156629.7248,0
28/12/2009,149551.2661,0
29/12/2009,143075.2294,0
30/12/2009,137954.6422,0
31/12/2009,133285.8716,0
01/01/2010,129370.1284,0
02/01/2010,125454.3853,0
03/01/2010,121689.2477,0
04/01/2010,119128.9541,0
05/01/2010,117171.0826,0
06/01/2010,115062.6055,0
07/01/2010,112954.1284,0
08/01/2010,111448.0734,0
09/01/2010,110544.4404,123605
10/01/2010,109640.8073,117301
11/01/2010,108887.7798,8592
12/01/2010,107984.1468,95774
13/01/2010,120183.1927,221866
14/01/2010,1070805.138,206058
15/01/2010,1272616.514,208568
16/01/2010,1436776.514,355044
17/01/2010,932248.0734,43134
18/01/2010,623506.789,20978
19/01/2010,602422.0183,203980
20/01/2010,1396113.028,320752
21/01/2010,1084359.633,265969
22/01/2010,1284664.954,249305
23/01/2010,740979.0826,149514
24/01/2010,685255.0459,305012
25/01/2010,1168698.716,622972
26/01/2010,903633.0275,374854
27/01/2010,617482.5688,69066
28/01/2010,450310.4587,26741
29/01/2010,338862.3853,0
30/01/2010,283138.3486,0
31/01/2010,234944.5872,34
01/02/2010,192775.0459,1155
02/02/2010,164160,0
03/02/2010,139912.5138,502
04/02/2010,123948.3303,1027
05/02/2010,110996.2569,10597
06/02/2010,99399.63303,63371
07/02/2010,92321.17431,68158
08/02/2010,86598.16514,29308
09/02/2010,81025.76147,51
10/02/2010,75603.9633,1302
11/02/2010,71989.43119,14406
12/02/2010,71236.40367,14772
13/02/2010,70784.58716,30599
14/02/2010,70031.55963,18445
15/02/2010,69429.13761,97225
16/02/2010,68826.7156,56379
17/02/2010,68224.29358,0
18/02/2010,67621.87156,0
19/02/2010,67019.44954,16533
20/02/2010,66417.02752,15
21/02/2010,66266.42202,69
22/02/2010,52109.50459,0
23/02/2010,65965.21101,0
24/02/2010,65814.6055,15
25/02/2010,65814.6055,0
26/02/2010,65664,0
27/02/2010,65513.3945,3305
28/02/2010,65362.78899,8804
01/03/2010,65362.78899,0
02/03/2010,65212.18349,31515
03/03/2010,65061.57798,141085
04/03/2010,65513.3945,39958
05/03/2010,105122.6422,124569
06/03/2010,314765.5046,325221
07/03/2010,382537.9817,412470
08/03/2010,212353.7615,77664
09/03/2010,174702.3853,283708
10/03/2010,149701.8716,349450
11/03/2010,124851.9633,258255
12/03/2010,108134.7523,63089
13/03/2010,100002.055,65695
14/03/2010,89007.85321,77492